Weather in Anna

Russia / Voronezh Oblast     51°29′21″N   40°25′27″E
temp.,
°C
wind,
m/s
gust,
m/s
humid.,
%
clouds,
%
prec.,
mm/h
press.,
hPa
HPBL,
m
1 march, mon
mon100:00−4n3595100 0.0 1020247
03:00−6nne239594 0.0 1021140
06:00−7nne229596 0.0 102337
09:00−5nne129192 0.0 1025146
12:00−3n238394 0.0 1027497
15:00−2nw248196 0.0 1027640
18:00−2wnw2384100 0.0 102687
21:00−4wsw349075 0.0 102681
2 march, tue
tue200:00−4wsw4109332 0.0 1025238
03:00−3wsw6139044 0.0 1022605
06:00−2wsw71587100 0.0 1019599
09:000wsw81489100 0.0 1017689
12:00+1w71392100 0.0 1014685
15:000w71398100 0.6 1012596
18:00+1wnw61297100 0.9 1011536
21:000nw4898100 1.3 1011353
3 march, wed
wed300:00−1nw4994100 0.6 1010489
03:00−3nnw5119381 0.6 1012303
06:00−3nw5129220 0.0 1013392
09:00−2nw6119044 0.0 1015793
12:00−2nnw7107699 0.2 10161234
15:00−2nw7107399 0.3 10181141
18:00−3wnw4108331 0.0 1019335
21:00−3w4118816 0.0 1020316
4 march, thu
thu400:00−2w599267 0.0 1019409
03:00−4wsw489579 0.0 1018213
06:00−2wsw5109478 0.0 1017501
09:00−2wsw6129279 0.0 1016504
12:00+1wsw713828 0.0 1013731
15:00+3sw814694 0.0 1011848
18:00+2sw817670 0.0 1009644
21:00+1sw817720 0.0 1008636
5 march, fri
fri500:00+2sw7167957 0.0 1006579
03:00+2wsw7159179 0.0 1006486
06:00+2wsw61294100 0.1 1006452
09:00+2wsw61295100 0.1 1007543
12:00+3wsw51091100 0.1 1008585
15:00+3sw3993100 0.1 1007418
18:00+3ssw61497100 2.8 1005648
21:00+3sw61493100 6.2 1004536